Notices

What's New in latest Release from April 7th, 2021:

- Updated Glossary, including Speed of Maximum Gust, and Total Hourly Precipitation

- Updated national and regional climate services offices contacts and prices information

- Addition of station inventory lists for 1981-2010, 1971-2000, and 1961-1990 Normals.

If you haven't already, please take our survey and provide feedback about our website: https://eccc.sondage-survey.ca/f/LanguageSelection.aspx?s=442ca660-fcf1-47c0-95a9-59707d6fd709

Hourly Data Report for March 30, 2012

MIRAMICHI RCS
NEW BRUNSWICK

47°00'34.000" N
65°27'54.000" W
33.00 m
8100989
71744
ACQ

Download Data

Hourly Data (March 2012)
Hourly Data Report for March 30, 2012
TIME
LST
Temp Definition
°C
Dew Point Definition
°C
Rel Hum Definition
%
Precip. Amount Definition
mm

Wind Dir Definition
10's deg

Wind Spd Definition
km/h
Visibility Definition
km
Stn Press Definition
kPa
Hmdx Definition


Wind Chill Definition


Weather Definition


00:00 -1.0 -7.0 64   26 6   100.05   -3 LegendNANA
01:00 -1.2 -7.9 60   25 7   100.02   -4 LegendNANA
02:00 -1.4 -9.2 55   25 7   99.97   -4 LegendNANA
03:00 -1.5 -8.9 57   26 6   99.97   -4 LegendNANA
04:00 -1.5 -8.7 58   25 6   99.98   -4 LegendNANA
05:00 -1.5 -7.6 63   25 7   100.01   -4 LegendNANA
06:00 -1.3 -6.7 67   25 6   100.05   -4 LegendNANA
07:00 -1.1 -6.3 68   26 4   100.13   -2 LegendNANA
08:00 1.1 -7.7 52   29 7   100.15     LegendNANA
09:00 2.9 -9.3 40   32 11   100.17     LegendNANA
10:00 4.0 -12.2 30   32 15   100.21     LegendNANA
11:00 4.5 -13.4 26   30 15   100.23     LegendNANA
12:00 5.0 -12.0 28   30 19   100.23     LegendNANA
13:00 5.7 -12.3 26   30 17   100.22     LegendNANA
14:00 6.3 -14.3 21   31 17   100.19     LegendNANA
15:00 7.3 -12.3 23   29 17   100.20     LegendNANA
16:00 6.2 -15.7 19   32 19   100.22     LegendNANA
17:00 6.3 -14.7 21   31 13   100.26     LegendNANA
18:00 5.1 -13.2 25   33 11   100.38     LegendNANA
19:00 3.3 -12.7 30   31 7   100.50     LegendNANA
20:00 1.7 -12.1 35   32 6   100.63     LegendNANA
21:00 0.2 -11.2 42   29 6   100.70     LegendNANA
22:00 -0.5 -10.3 47   26 6   100.70   -3 LegendNANA
23:00 -1.0 -9.8 51   25 11   100.72   -5 LegendNANA

Notes on Data Quality.

Legend

  • E = Estimated
  • M = Missing
  • NA = Not Available*
  • [empty] = Indicates an unobserved value
Date modified: